Location: Slanting_Bridge
(35.6330°N, 80.9830°W)
Time: 14:33:43
(UTC-04:00)

Amateur Radio Satellites - All Passes

Search period start: 23 October 2014 14:03
Search period end: 24 October 2014 14:03
Location: Slanting_Bridge, 35.6330°N, 80.9830°W

Satellite Date Start Highest point End Downlink Frequencies (MHz)
Time Altitude Azimuth
Oscar 10/S400 23 Oct 14:08:33 14:28:08 46° 154° (SSE) 14:50:21 145.825 - 145.975 CW/USB, Beacon 145.810 USB
KITSAT 1 23 Oct 14:18:06 14:25:32 40° 307° (NW) 14:33:02 435.175 FM
Oscar 16 23 Oct 14:19:39 14:24:49 78° 257° (WSW) 14:30:00 437.025 USB, Beacon 2401.1428
AO-Echo 23 Oct 14:27:51 14:32:36 60° 74° (ENE) 14:37:31 ?
Uribyol 2 23 Oct 14:36:21 14:41:29 63° 74° (ENE) 14:46:40 436.500 FM
AO-7 23 Oct 14:37:33 14:39:47 11° 49° (NE) 14:42:01 29.400 - 29.500 MHz
ITAMSAT 1 23 Oct 14:41:58 14:47:07 67° 74° (ENE) 14:52:18 435.822 SSB
Gurwin Techsat 1B 23 Oct 14:52:48 14:57:46 43° 71° (ENE) 15:02:45 435.225 FM
TMSAT-1 23 Oct 15:05:07 15:10:02 41° 71° (ENE) 15:14:59 436.925 FM
UOSAT-12 23 Oct 15:12:07 15:16:34 52° 115° (ESE) 15:21:08 437.025 FM, 437.400 FM
Oscar 19 23 Oct 15:14:48 15:18:49 23° 265° (W) 15:22:50 437.125 CW, 437.150 USB
Sapphire 23 Oct 15:16:02 15:20:56 36° 251° (WSW) 15:25:49 437.095 MHz 1200 baud AX-25 AFSK
SO-50 23 Oct 15:22:58 15:25:20 14° 315° (NW) 15:27:45 436.795 FM
AO-27 23 Oct 15:27:30 15:32:24 42° 261° (W) 15:37:21 436.795 MHz FM
ISS 23 Oct 15:38:27 15:38:59 10° 338° (NNW) 15:39:30 145.800 FM
PCSat 23 Oct 15:39:36 15:43:27 20° 255° (WSW) 15:47:18 145.825 MHz
JAS-1B 23 Oct 15:42:45 15:47:09 20° 264° (W) 15:51:20 435.800 - 435.900 CW/SSB
AO-Echo 23 Oct 16:09:56 16:11:47 12° 269° (W) 16:13:40 ?
Uosat F 23 Oct 16:12:15 16:16:18 25° 68° (ENE) 16:20:23 435.120 FM
Uribyol 2 23 Oct 16:18:59 16:21:20 13° 268° (W) 16:23:42 436.500 FM
AO-7 23 Oct 16:22:47 16:30:52 61° 68° (ENE) 16:38:58 29.400 - 29.500 MHz
ITAMSAT 1 23 Oct 16:25:02 16:27:01 12° 269° (W) 16:29:00 435.822 SSB
Gurwin Techsat 1B 23 Oct 16:34:01 16:37:52 20° 266° (W) 16:41:44 435.225 FM
TMSAT-1 23 Oct 16:46:07 16:50:03 21° 266° (W) 16:54:02 436.925 FM
UOSAT-12 23 Oct 16:53:51 16:57:01 18° 312° (NW) 17:00:13 437.025 FM, 437.400 FM
Saudisat 1A 23 Oct 16:55:43 16:59:24 25° 52° (NE) 17:03:03 436.775 MHz
JAS-2 23 Oct 17:11:53 17:16:38 26° 64° (ENE) 17:21:51 435.800 - 435.900 CW/SSB, 435.910 FM
Uosat F 23 Oct 17:50:28 17:54:55 32° 262° (W) 17:59:23 435.120 FM
OPAL 23 Oct 17:51:21 17:55:18 24° 98° (E) 17:59:13 ?
AO-7 23 Oct 18:17:28 18:24:01 26° 264° (W) 18:30:37 29.400 - 29.500 MHz
Hamsat 23 Oct 18:20:58 18:25:09 68° 76° (ENE) 18:29:20 145.90 MHz
Saudisat 1A 23 Oct 18:35:05 18:38:55 29° 247° (WSW) 18:42:44 436.775 MHz
JAS-2 23 Oct 18:55:58 19:01:20 42° 263° (W) 19:07:24 435.800 - 435.900 CW/SSB, 435.910 FM
SO-67 23 Oct 19:00:15 19:02:36 18° 71° (ENE) 19:04:58 435.3500 MHz FM
OPAL 23 Oct 19:29:47 19:34:11 33° 292° (WNW) 19:38:34 ?
STRAND 1 23 Oct 19:33:05 19:37:34 29° 97° (E) 19:42:00 ?
KITSAT 1 23 Oct 20:20:18 20:24:34 15° 37° (NE) 20:28:50 435.175 FM
AO-40 23 Oct 20:28:40 23:15:34 25° 114° (ESE) 00:31:56 Beacon 2401.320
ISS 23 Oct 20:29:29 20:32:42 44° 38° (NE) 20:35:54 145.800 FM
HO-68 23 Oct 20:30:39 20:36:39 30° 64° (ENE) 20:42:40 435.675 MHz FM
SO-67 23 Oct 20:32:52 20:35:26 20° 265° (W) 20:38:01 435.3500 MHz FM
STRAND 1 23 Oct 21:12:17 21:16:38 28° 292° (WNW) 21:20:58 ?
UKube-1 23 Oct 21:25:35 21:28:48 21° 68° (ENE) 21:32:01 145.840 MHz, 145.915 MHz
FUNcube-1 23 Oct 22:02:46 22:06:07 20° 69° (ENE) 22:09:26 145.950 - 145.970 MHz USB
Oscar 11 23 Oct 22:07:06 22:11:19 53° 75° (ENE) 22:15:32 145.825 FM, Beacon 2401.500 USB
ISS 23 Oct 22:07:09 22:09:06 15° 232° (SW) 22:11:03 145.800 FM
RS-15 23 Oct 22:12:16 22:22:34 47° 109° (ESE) 22:32:41 29.354 - 29.394 USB, Beacon 29.352 USB
KITSAT 1 23 Oct 22:13:41 22:21:42 63° 59° (ENE) 22:29:40 435.175 FM
SO-50 23 Oct 22:14:26 22:18:40 29° 53° (NE) 22:22:55 436.795 FM
HO-68 23 Oct 22:17:12 22:24:01 47° 260° (W) 22:30:54 435.675 MHz FM
ZACube-1 23 Oct 22:52:30 22:57:05 74° 76° (ENE) 23:01:39 437.345 MHz
UKube-1 23 Oct 23:00:57 23:04:46 30° 262° (W) 23:08:36 145.840 MHz, 145.915 MHz
FUNcube-1 23 Oct 23:38:04 23:42:14 34° 262° (W) 23:46:22 145.950 - 145.970 MHz USB
UOSAT-12 23 Oct 23:45:04 23:48:44 22° 50° (NE) 23:52:21 437.025 FM, 437.400 FM
Oscar 11 23 Oct 23:46:39 23:47:46 11° 268° (W) 23:48:53 145.825 FM, Beacon 2401.500 USB
MaSat-1 23 Oct 23:52:56 23:56:39 29° 108° (ESE) 00:00:07 437.345 MHz
SO-50 23 Oct 23:54:56 23:59:10 30° 248° (WSW) 00:03:24 436.795 FM
KITSAT 1 24 Oct 00:10:15 00:16:26 25° 256° (WSW) 00:22:36 435.175 FM
RS-15 24 Oct 00:24:22 00:34:47 47° 309° (NW) 00:45:13 29.354 - 29.394 USB, Beacon 29.352 USB
UOSAT-12 24 Oct 01:24:38 01:29:00 39° 246° (WSW) 01:33:17 437.025 FM, 437.400 FM
MaSat-1 24 Oct 01:29:12 01:32:17 20° 300° (WNW) 01:35:11 437.345 MHz
JAS-1B 24 Oct 01:37:25 01:41:29 16° 94° (E) 01:45:52 435.800 - 435.900 CW/SSB
Oscar 19 24 Oct 01:50:27 01:53:32 16° 93° (E) 01:56:35 437.125 CW, 437.150 USB
Oscar 16 24 Oct 02:34:31 02:39:28 47° 100° (E) 02:44:22 437.025 USB, Beacon 2401.1428
AO-Echo 24 Oct 02:38:21 02:42:48 27° 96° (E) 02:47:13 ?
RS-15 24 Oct 02:45:10 02:50:59 15° 340° (NNW) 02:56:51 29.354 - 29.394 USB, Beacon 29.352 USB
Uribyol 2 24 Oct 02:52:39 02:57:07 28° 97° (E) 03:01:32 436.500 FM
ITAMSAT 1 24 Oct 02:58:20 03:02:55 30° 97° (E) 03:07:27 435.822 SSB
Gurwin Techsat 1B 24 Oct 03:12:39 03:16:41 22° 95° (E) 03:20:42 435.225 FM
TMSAT-1 24 Oct 03:24:39 03:28:34 21° 94° (E) 03:32:27 436.925 FM
JAS-1B 24 Oct 03:25:32 03:32:18 81° 285° (WNW) 03:40:26 435.800 - 435.900 CW/SSB
Oscar 19 24 Oct 03:28:11 03:33:07 50° 287° (WNW) 03:38:02 437.125 CW, 437.150 USB
AO-27 24 Oct 03:43:11 03:48:27 88° 105° (ESE) 03:53:40 436.795 MHz FM
Sapphire 24 Oct 04:11:20 04:16:26 45° 111° (ESE) 04:21:35 437.095 MHz 1200 baud AX-25 AFSK
Oscar 16 24 Oct 04:15:00 04:18:24 18° 295° (WNW) 04:21:48 437.025 USB, Beacon 2401.1428
AO-Echo 24 Oct 04:16:47 04:21:31 33° 290° (WNW) 04:26:13 ?
AO-7 24 Oct 04:28:51 04:35:06 23° 95° (E) 04:41:18 29.400 - 29.500 MHz
Uribyol 2 24 Oct 04:32:01 04:36:30 30° 291° (WNW) 04:40:57 436.500 FM
PCSat 24 Oct 04:33:38 04:39:02 81° 115° (ESE) 04:44:28 145.825 MHz
ITAMSAT 1 24 Oct 04:37:52 04:42:16 28° 292° (WNW) 04:46:39 435.822 SSB
Gurwin Techsat 1B 24 Oct 04:51:49 04:56:45 40° 289° (WNW) 05:01:39 435.225 FM
OPAL 24 Oct 05:03:11 05:07:44 33° 68° (ENE) 05:12:15 ?
TMSAT-1 24 Oct 05:03:38 05:08:36 42° 289° (WNW) 05:13:33 436.925 FM
RS-15 24 Oct 05:04:34 05:10:18 15° 19° (NNE) 05:16:06 29.354 - 29.394 USB, Beacon 29.352 USB
JAS-1B 24 Oct 05:19:39 05:22:13 12° 299° (WNW) 05:24:55 435.800 - 435.900 CW/SSB
AO-27 24 Oct 05:26:33 05:27:09 10° 299° (WNW) 05:27:45 436.795 MHz FM
Sapphire 24 Oct 05:55:48 06:00:03 23° 307° (NW) 06:04:19 437.095 MHz 1200 baud AX-25 AFSK
Uosat F 24 Oct 06:00:26 06:05:30 83° 285° (WNW) 06:10:32 435.120 FM
JAS-2 24 Oct 06:07:13 06:14:20 37° 96° (E) 06:21:21 435.800 - 435.900 CW/SSB, 435.910 FM
Hamsat 24 Oct 06:10:55 06:13:16 15° 93° (E) 06:15:38 145.90 MHz
AO-7 24 Oct 06:20:07 06:28:21 68° 291° (WNW) 06:36:35 29.400 - 29.500 MHz
PCSat 24 Oct 06:20:11 06:23:05 14° 313° (NW) 06:26:00 145.825 MHz
OPAL 24 Oct 06:42:17 06:46:34 26° 262° (W) 06:50:50 ?
STRAND 1 24 Oct 06:46:13 06:50:43 32° 69° (ENE) 06:55:15 ?
Saudisat 1A 24 Oct 07:01:41 07:03:17 12° 108° (ESE) 07:04:53 436.775 MHz
RS-15 24 Oct 07:16:12 07:26:45 44° 50° (NE) 07:37:40 29.354 - 29.394 USB, Beacon 29.352 USB
Hamsat 24 Oct 07:45:27 07:49:20 37° 287° (WNW) 07:53:13 145.90 MHz
JAS-2 24 Oct 07:52:01 07:59:15 44° 291° (WNW) 08:06:29 435.800 - 435.900 CW/SSB, 435.910 FM
SO-67 24 Oct 07:58:13 08:01:17 29° 97° (E) 08:04:20 435.3500 MHz FM
PANSAT 24 Oct 08:10:53 08:13:33 18° 165° (SSE) 08:16:12 not established
AO-7 24 Oct 08:16:15 08:19:36 13° 310° (NW) 08:22:57 29.400 - 29.500 MHz
STRAND 1 24 Oct 08:25:39 08:29:52 26° 264° (W) 08:34:07 ?
Saudisat 1A 24 Oct 08:38:01 08:42:19 56° 302° (WNW) 08:46:39 436.775 MHz
RS-15 24 Oct 09:28:33 09:39:16 52° 250° (WSW) 09:50:28 29.354 - 29.394 USB, Beacon 29.352 USB
SO-67 24 Oct 09:32:31 09:33:56 12° 291° (WNW) 09:35:22 435.3500 MHz FM
MaSat-1 24 Oct 09:42:27 09:44:06 15° 59° (ENE) 09:45:41 437.345 MHz
HO-68 24 Oct 09:47:58 09:54:40 40° 99° (E) 10:01:17 435.675 MHz FM
PANSAT 24 Oct 09:49:55 09:53:12 27° 178° (S) 09:56:30 not established
Oscar 11 24 Oct 09:59:44 10:01:24 12° 92° (E) 10:03:03 145.825 FM, Beacon 2401.500 USB
ZACube-1 24 Oct 10:46:10 10:48:54 17° 93° (E) 10:51:35 437.345 MHz
UKube-1 24 Oct 10:51:25 10:55:43 55° 101° (E) 10:59:59 145.840 MHz, 145.915 MHz
FUNcube-1 24 Oct 11:29:53 11:34:04 57° 100° (E) 11:38:09 145.950 - 145.970 MHz USB
PANSAT 24 Oct 11:29:54 11:32:54 22° 191° (S) 11:35:54 not established
Oscar 11 24 Oct 11:33:40 11:37:48 48° 286° (WNW) 11:41:56 145.825 FM, Beacon 2401.500 USB
HO-68 24 Oct 11:35:50 11:42:11 35° 295° (WNW) 11:48:31 435.675 MHz FM
ZACube-1 24 Oct 12:21:34 12:25:22 32° 288° (WNW) 12:29:06 437.345 MHz
SO-50 24 Oct 12:28:04 12:30:49 16° 108° (ESE) 12:33:38 436.795 FM
UKube-1 24 Oct 12:29:47 12:31:23 12° 296° (WNW) 12:32:59 145.840 MHz, 145.915 MHz
KITSAT 1 24 Oct 12:38:06 12:46:04 66° 113° (ESE) 12:54:03 435.175 FM
Sapphire 24 Oct 13:02:47 13:06:53 21° 52° (NE) 13:10:57 437.095 MHz 1200 baud AX-25 AFSK
Oscar 19 24 Oct 13:04:40 13:08:08 19° 66° (ENE) 13:11:36 437.125 CW, 437.150 USB
FUNcube-1 24 Oct 13:09:11 13:09:53 10° 296° (WNW) 13:10:35 145.950 - 145.970 MHz USB
ISS 24 Oct 13:09:14 13:12:33 76° 137° (SE) 13:15:52 145.800 FM
Oscar 10/S400 24 Oct 13:23:06 13:43:48 40° 153° (SSE) 14:02:46 145.825 - 145.975 CW/USB, Beacon 145.810 USB
AO-27 24 Oct 13:23:28 13:24:48 11° 61° (ENE) 13:26:08 436.795 MHz FM
PCSat 24 Oct 13:24:51 13:29:47 34° 56° (ENE) 13:34:40 145.825 MHz
Oscar 16 24 Oct 13:48:31 13:53:31 51° 73° (ENE) 13:58:30 437.025 USB, Beacon 2401.1428
AO-Echo 24 Oct 13:48:53 13:52:44 24° 67° (ENE) 13:56:42 ?
UOSAT-12 24 Oct 13:56:09 13:57:28 11° 106° (ESE) 13:58:48 437.025 FM, 437.400 FM
